Location: Czu?�w
(50.1404°N, 18.9919°E)
Time: 02:21:42
(UTC+00:00)

SKYMED 3 - Pass Details

Date: 27 October 2020
Orbit: 621 x 623 km, 97.9° (Epoch: 24 November)

Event Time Altitude Azimuth Distance (km) Brightness Sun altitude
Rises 16:48:02 0° 15° (NNE) 2,916 7.8 -13.2°
Reaches altitude 10° 16:50:15 10° 18° (NNE) 2,005 7.0 -13.6°
Maximum altitude 16:54:36 68° 102° (ESE) 675 4.5 -14.3°
Drops below altitude 10° 16:58:54 10° 186° (S) 1,987 7.3 -15.0°
Sets 17:01:06 0° 189° (S) 2,889 8.1 -15.3°
